Hourly Data Report for October 28, 2017

All times are specified in Local Standard Time (LST). Add 1 hour to adjust for Daylight Saving Time where and when it is observed.

ST. PETERS
PRINCE EDWARD ISLAND

46°27'01.000" N
62°34'33.000" W
29.70 m
8300562
71310
ZSP

Download Data

Hourly Data (October 2017)
Hourly Data Report for October 28, 2017
Temp Definition
°C
Dew Point Temp Definition
°C
Rel Hum Definition
%
Wind Dir Definition
10's deg

Wind Spd Definition
km/h
Visibility Definition
km
Stn Press Definition
kPa
Hmdx Definition


Wind Chill Definition


Weather Definition


TIME
00:00 11.2 7.1 76 28 11   101.28     LegendNANA
01:00 10.9 7.5 80 31 8   101.28     LegendNANA
02:00 10.6 6.0 73 31 12   101.28     LegendNANA
03:00 10.5 5.6 72 32 8   101.28     LegendNANA
04:00 10.4 5.9 74 32 10   101.33     LegendNANA
05:00 10.3 6.0 75 30 14   101.36     LegendNANA
06:00 10.2 5.7 74 31 10   101.39     LegendNANA
07:00 10.1 5.8 75 30 9   101.43     LegendNANA
08:00 10.3 6.1 75 30 14   101.49     LegendNANA
09:00 10.0 6.2 77 33 11   101.51     LegendNANA
10:00 10.3 5.5 72 31 15   101.52     LegendNANA
11:00 10.1 5.5 73 31 15   101.52     LegendNANA
12:00 10.3 5.7 73 30 16   101.51     LegendNANA
13:00 10.0 5.4 73 29 17   101.46     LegendNANA
14:00 10.2 5.8 74 30 12   101.45     LegendNANA
15:00 9.5 5.4 76 31 12   101.49     LegendNANA
16:00 9.7 5.3 74 34 7   101.51     LegendNANA
17:00 8.4 5.1 80   0   101.49     LegendNANA
18:00 6.4 4.9 90 17 2   101.52     LegendNANA
19:00 5.1 3.9 92 19 3   101.54     LegendNANA
20:00 4.5 3.5 93 15 4   101.53     LegendNANA
21:00 3.9 3.0 93 13 9   101.56     LegendNANA
22:00 4.8 4.0 95 15 8   101.57     LegendNANA
23:00 4.9 4.0 94 15 9   101.55     LegendNANA

Notes on Data Quality.

Legend

  • E = Estimated
  • M = Missing
  • NA = Not Available
  • ‡ = Partner data that is not subject to review by the National Climate Archives
Date modified: